Troy, MI

8:52 AM EDT on July 24, 2017 (GMT -0400)
Troy

Weather History for KVLL - January, 2014

Change the Weather History Date:

Thursday, January 16, 2014

  Actual Average (KDET) Record (KDET)
Temperature  
Mean Temperature 23 °F -  
Max Temperature 27 °F 30 °F 55 °F (1949)
Min Temperature 19 °F 16 °F -9 °F (2009)
Degree Days  
Heating Degree Days 42    
Moisture  
Dew Point 18 °F    
Average Humidity 81    
Maximum Humidity 93    
Minimum Humidity 69    
Precipitation  
Precipitation 0.00 in - - ()
Sea Level Pressure  
Sea Level Pressure 29.78 in    
Wind  
Wind Speed 11 mph (South)    
Max Wind Speed 16 mph    
Max Gust Speed 24 mph    
Visibility 6 miles    
Events Snow    
Averages and records for this station are not official NWS values.
T = Trace of Precipitation, MM = Missing Value Source: NWS Daily Summary

Daily Weather History Graph

Daily Weather History Graph

Search for Another Location

Airport or City:

Trip Planner

Search our weather history database for the weather conditions in past years. The results will help you decide how hot, cold, wet, or windy it might be!

Date:

Astronomy

Jan. 16, 2014 Rise Set
Actual Time 7:59 AM EST 5:26 PM EST
Civil Twilight 7:28 AM EST 5:57 PM EST
Nautical Twilight 6:53 AM EST 6:31 PM EST
Astronomical Twilight 6:19 AM EST 7:05 PM EST
Moon 6:18 PM EST (1/16) 7:50 AM EST (1/16)
Length of Visible Light 10h 28m
Length of Day
9h 26m
Full, 100% of the Moon is Illuminated
Jan 16
Full
Jan 24
Last Quarter
Jan 30
New
Feb 6
First Quarter
Feb 14
Full

Hourly Weather History & Observations

Time (EST) Temp. Windchill Dew Point Humidity Pressure Visibility Wind Dir Wind Speed Gust Speed Precip Events Conditions
12:15 AM 20.8 °F 13.2 °F 14.4 °F 76% 29.96 in 10.0 mi SW 5.8 mph - N/A   Overcast
12:34 AM 21.0 °F 11.4 °F 14.5 °F 76% 29.95 in 10.0 mi SSW 8.1 mph - N/A   Overcast
12:54 AM 20.7 °F 9.5 °F 14.2 °F 76% 29.93 in 10.0 mi SSW 10.4 mph - N/A   Overcast
1:14 AM 20.5 °F 10.0 °F 13.5 °F 74% 29.93 in 10.0 mi SSW 9.2 mph - N/A   Mostly Cloudy
1:34 AM 20.8 °F 7.3 °F 12.4 °F 70% 29.93 in 10.0 mi SSW 15.0 mph 24.2 mph N/A   Overcast
1:55 AM 20.8 °F 7.9 °F 12.0 °F 69% 29.93 in 10.0 mi SW 13.8 mph 18.4 mph N/A   Overcast
2:15 AM 20.7 °F 8.2 °F 12.0 °F 69% 29.94 in 10.0 mi SW 12.7 mph 18.4 mph N/A   Overcast
2:34 AM 20.7 °F 8.2 °F 12.6 °F 71% 29.92 in 10.0 mi SW 12.7 mph 17.3 mph N/A   Overcast
2:54 AM 20.8 °F 7.9 °F 12.7 °F 71% 29.92 in 10.0 mi SW 13.8 mph 20.7 mph N/A   Overcast
3:14 AM 20.5 °F 8.6 °F 12.2 °F 70% 29.92 in 10.0 mi SW 11.5 mph 20.7 mph N/A   Overcast
3:34 AM 20.3 °F 9.0 °F 11.8 °F 70% 29.91 in 10.0 mi SSW 10.4 mph 19.6 mph N/A   Overcast
3:54 AM 20.3 °F 9.8 °F 11.8 °F 70% 29.90 in 10.0 mi SSW 9.2 mph - N/A   Overcast
4:14 AM 20.7 °F 10.2 °F 12.6 °F 71% 29.90 in 10.0 mi SSW 9.2 mph 17.3 mph N/A   Overcast
4:35 AM 20.3 °F 7.2 °F 11.7 °F 69% 29.90 in 10.0 mi SW 13.8 mph 23.0 mph N/A   Overcast
4:55 AM 19.9 °F 7.3 °F 11.3 °F 69% 29.89 in 10.0 mi SW 12.7 mph - N/A   Overcast
5:14 AM 20.1 °F 8.8 °F 11.8 °F 70% 29.87 in 10.0 mi SSW 10.4 mph 17.3 mph N/A   Overcast
5:35 AM 20.3 °F 8.3 °F 12.2 °F 71% 29.87 in 10.0 mi SSW 11.5 mph 18.4 mph N/A   Overcast
5:54 AM 20.7 °F 7.6 °F 12.7 °F 71% 29.86 in 10.0 mi SSW 13.8 mph 19.6 mph N/A   Overcast
6:14 AM 20.3 °F 8.3 °F 12.2 °F 71% 29.85 in 10.0 mi South 11.5 mph 19.6 mph N/A   Overcast
6:35 AM 20.1 °F 7.5 °F 11.8 °F 70% 29.84 in 10.0 mi SSW 12.7 mph 18.4 mph N/A   Overcast
6:54 AM 20.1 °F 7.5 °F 12.0 °F 71% 29.84 in 10.0 mi South 12.7 mph 19.6 mph N/A   Overcast
7:14 AM 20.3 °F 10.6 °F 12.4 °F 71% 29.84 in 10.0 mi SSW 8.1 mph 17.3 mph N/A   Overcast
7:34 AM 20.3 °F 10.6 °F 12.2 °F 71% 29.83 in 10.0 mi SSW 8.1 mph 21.9 mph N/A   Overcast
7:54 AM 20.1 °F 6.9 °F 12.2 °F 71% 29.82 in 10.0 mi South 13.8 mph 19.6 mph N/A   Overcast
8:15 AM 20.3 °F 7.7 °F 12.2 °F 71% 29.82 in 10.0 mi South 12.7 mph 17.3 mph N/A   Overcast
8:35 AM 20.7 °F 10.2 °F 13.1 °F 73% 29.82 in 10.0 mi South 9.2 mph 16.1 mph N/A   Overcast
8:55 AM 21.0 °F 9.3 °F 13.1 °F 71% 29.82 in 10.0 mi South 11.5 mph 18.4 mph N/A   Overcast
9:15 AM 21.0 °F 9.3 °F 13.6 °F 73% 29.81 in 10.0 mi South 11.5 mph 21.9 mph N/A   Overcast
9:34 AM 21.2 °F 7.8 °F 13.6 °F 73% 29.81 in 10.0 mi South 15.0 mph 21.9 mph N/A   Overcast
9:55 AM 21.9 °F 10.4 °F 14.0 °F 72% 29.82 in 10.0 mi South 11.5 mph 21.9 mph N/A   Overcast
10:14 AM 22.5 °F 8.9 °F 14.4 °F 71% 29.82 in 10.0 mi South 16.1 mph 23.0 mph N/A   Overcast
10:35 AM 22.8 °F 10.9 °F 15.1 °F 72% 29.81 in 5.0 mi South 12.7 mph 19.6 mph N/A   Haze
10:54 AM 22.5 °F 9.9 °F 16.7 °F 79% 29.80 in 1.8 mi South 13.8 mph 18.4 mph N/A Snow Light Snow
11:14 AM 22.6 °F 11.3 °F 18.1 °F 83% 29.80 in 1.2 mi South 11.5 mph 18.4 mph N/A Snow Light Snow
11:35 AM 23.0 °F 10.6 °F 18.9 °F 84% 29.79 in 1.2 mi South 13.8 mph 18.4 mph N/A Snow Light Snow
11:55 AM 23.0 °F 12.4 °F 19.2 °F 85% 29.78 in 1.5 mi South 10.4 mph 18.4 mph N/A Snow Light Snow
12:15 PM 23.0 °F 9.6 °F 19.4 °F 86% 29.77 in 1.2 mi South 16.1 mph 23.0 mph N/A Snow Light Snow
12:35 PM 23.4 °F 12.2 °F 20.1 °F 87% 29.76 in 1.2 mi South 11.5 mph 19.6 mph N/A Snow Light Snow
12:54 PM 23.7 °F 14.0 °F 20.3 °F 87% 29.75 in 1.5 mi South 9.2 mph 18.4 mph N/A Snow Light Snow
1:14 PM 23.9 °F 13.5 °F 20.5 °F 87% 29.73 in 1.5 mi South 10.4 mph 19.6 mph N/A Snow Light Snow
1:35 PM 24.3 °F 13.3 °F 20.8 °F 87% 29.72 in 1.5 mi South 11.5 mph 23.0 mph N/A Snow Light Snow
1:54 PM 24.6 °F 13.2 °F 21.0 °F 86% 29.71 in 1.8 mi South 12.7 mph 19.6 mph N/A Snow Light Snow
2:15 PM 24.8 °F 12.4 °F 21.2 °F 86% 29.70 in 1.8 mi South 15.0 mph 18.4 mph N/A Snow Light Snow
2:34 PM 24.8 °F 11.9 °F 21.4 °F 87% 29.70 in 2.5 mi South 16.1 mph 21.9 mph N/A   Overcast
2:54 PM 24.8 °F 13.4 °F 21.2 °F 86% 29.69 in 3.0 mi South 12.7 mph 19.6 mph N/A   Overcast
3:15 PM 24.8 °F 14.6 °F 21.7 °F 88% 29.69 in 1.2 mi South 10.4 mph 17.3 mph N/A Snow Light Snow
3:35 PM 24.8 °F 14.6 °F 22.1 °F 89% 29.69 in 1.0 mi South 10.4 mph 17.3 mph N/A Snow Light Snow
3:54 PM 24.8 °F 14.6 °F 22.6 °F 91% 29.69 in 0.5 mi South 10.4 mph 19.6 mph N/A Snow Light Snow
4:15 PM 25.2 °F 15.7 °F 22.8 °F 91% 29.69 in 1.0 mi South 9.2 mph - N/A Snow Light Snow
4:35 PM 25.3 °F 14.1 °F 23.0 °F 91% 29.69 in 1.0 mi South 12.7 mph 18.4 mph N/A Snow Light Snow
4:54 PM 25.5 °F 14.9 °F 23.0 °F 90% 29.69 in 1.0 mi South 11.5 mph - N/A Snow Light Snow
5:15 PM 25.7 °F 15.7 °F 23.0 °F 89% 29.70 in 1.5 mi South 10.4 mph - N/A Snow Light Snow
5:35 PM 25.7 °F 14.0 °F 23.4 °F 91% 29.70 in 4.0 mi South 13.8 mph 19.6 mph N/A   Overcast
5:55 PM 26.2 °F 15.2 °F 23.5 °F 90% 29.70 in 5.0 mi South 12.7 mph 18.4 mph N/A Snow Light Snow
6:15 PM 26.4 °F 16.0 °F 23.5 °F 89% 29.70 in 7.0 mi South 11.5 mph 19.6 mph N/A Snow Light Snow
6:34 PM 26.4 °F 15.5 °F 23.4 °F 88% 29.69 in 5.0 mi South 12.7 mph 18.4 mph N/A Snow Light Snow
6:55 PM 26.6 °F 15.7 °F 23.7 °F 89% 29.70 in 2.5 mi South 12.7 mph 17.3 mph N/A Snow Light Snow
7:14 PM 26.6 °F 15.7 °F 23.9 °F 90% 29.70 in 4.0 mi South 12.7 mph 19.6 mph N/A Snow Light Snow
7:35 PM 27.0 °F 16.7 °F 23.9 °F 88% 29.69 in 7.0 mi South 11.5 mph 16.1 mph N/A Snow Light Snow
7:54 PM 27.1 °F 18.2 °F 23.9 °F 88% 29.69 in 5.0 mi South 9.2 mph 17.3 mph N/A Snow Light Snow
8:15 PM 27.3 °F 17.1 °F 23.9 °F 87% 29.69 in 7.0 mi South 11.5 mph - N/A Snow Light Snow
8:35 PM 27.3 °F 17.1 °F 23.9 °F 87% 29.68 in 7.0 mi South 11.5 mph - N/A   Overcast
8:54 PM 27.3 °F 17.1 °F 24.4 °F 89% 29.68 in 4.0 mi South 11.5 mph - N/A Snow Light Snow
9:15 PM 27.1 °F 18.9 °F 24.8 °F 91% 29.68 in 1.5 mi South 8.1 mph - N/A Snow Light Snow
9:34 PM 27.0 °F 16.7 °F 25.2 °F 93% 29.68 in 1.8 mi South 11.5 mph 16.1 mph N/A Snow Light Snow
9:55 PM 27.0 °F 18.7 °F 25.2 °F 93% 29.68 in 2.0 mi South 8.1 mph 17.3 mph N/A Snow Light Snow
10:14 PM 27.1 °F 17.5 °F 25.3 °F 93% 29.68 in 2.5 mi South 10.4 mph - N/A Snow Light Snow
10:35 PM 27.3 °F 19.1 °F 25.5 °F 93% 29.68 in 1.8 mi South 8.1 mph 16.1 mph N/A Snow Light Snow
10:54 PM 27.3 °F 17.7 °F 25.5 °F 93% 29.67 in 3.0 mi South 10.4 mph - N/A Snow Light Snow
11:15 PM 27.3 °F 17.1 °F 25.5 °F 93% 29.66 in 3.0 mi South 11.5 mph - N/A Snow Light Snow
11:34 PM 27.3 °F 18.4 °F 25.5 °F 93% 29.66 in 3.0 mi South 9.2 mph - N/A Snow Light Snow
11:55 PM 27.5 °F 19.3 °F 25.7 °F 93% 29.66 in 2.0 mi South 8.1 mph - N/A Snow Light Snow